Location: Cudham
(51.3000°N, 0.0667°E)
Time: 17:54:34
(UTC+00:00)

USA 229 DEB - Pass Details

Date: 19 April 2026
Orbit: 844 x 1364 km, 63.4° (Epoch: 10 January)

Event Time Altitude Azimuth Distance (km) Brightness Sun altitude
Rises 19:48:48 0° 276° (W) 3,634 8.0 -7.4°
Reaches altitude 10° 19:51:33 10° 287° (WNW) 2,760 7.4 -7.8°
Maximum altitude 19:57:21 32° 350° (N) 1,751 5.3 -8.6°
Drops below altitude 10° 20:03:52 10° 52° (NE) 3,102 5.9 -9.4°
Sets 20:07:08 0° 62° (ENE) 4,150 6.5 -9.9°
